Miscellaneous Local Product
Issued by NWS North Platte, NE

Home | Current Version | Previous Version | Text Only | Print | Product List | Glossary On
Versions: 1 2 3 4 5 6 7 8 9 10 11 12 13 14 15 16 17 18 19 20 21 22 23 24 25 26 27 28 29 30 31 32 33 34 35 36 37 38 39 40 41 42 43 44 45 46 47 48 49 50
085
AXUS43 KLBF 240910
MISLBF


WESTERN AND NORTH CENTRAL NEBRASKA HOURLY WEATHER ROUNDUP
NATIONAL WEATHER SERVICE NORTH PLATTE NE
400 AM CDT FRI MAR 24 2017

NOTE: "FAIR" INDICATES FEW OR NO CLOUDS BELOW 12,000 FEET WITH NO
SIGNIFICANT WEATHER AND/OR OBSTRUCTIONS TO VISIBILITY.

NOTE: STATIONS NOT REPORTING VARIABLES SUCH AS SKY/WEATHER OR
PRESSURE ARE PROVIDED BY RAWS AND APRS NETWORKS AND ARE NOT UNDER
NATIONAL WEATHER SERVICE QUALITY CONTROL.

...OBSERVATIONS IN AND NEAR THE EASTERN PANHANDLE OF NEBRASKA...

CITY           SKY/WX    TMP DP  RH WIND       PRES   REMARKS
PINE RIDGE     CLOUDY    42  38  85 N10       29.95R
CHADRON        CLOUDY    41  37  86 NE8       29.98R
ALLIANCE       CLOUDY    40  37  89 N17G24    29.91R WCI  31
SIDNEY         LGT RAIN  41  39  93 N21G28    29.85R
CRESCENT LAKE    N/A     41  41  99 N13G20      N/A
$$

...OBSERVATIONS IN NORTHERN NEBRASKA AND FAR SOUTHERN SOUTH DAKOTA...

CITY           SKY/WX    TMP DP  RH WIND       PRES   REMARKS
WINNER         MOCLDY    42  38  85 N7        29.91R
VALENTINE      CLOUDY    41  36  82 N13       29.89R
THEDFORD       LGT RAIN  45  43  95 N10G17    29.85R
AINSWORTH      DRIZZLE   43  42  98 N15       29.88R
O`NEILL        CLOUDY    44  43  95 N14       29.84R
ORD            LGT RAIN  50  46  86 N16       29.80R
BROKEN BOW     LGT RAIN  50  48  93 N16G24    29.78R
VALENTINE NWR    N/A     43  43 100 N12         N/A
HALSEY           N/A     47  47 100 N7G16       N/A
BUTTE            N/A     39  37  94 NW14        N/A  WCI  31
CHAMBERS         N/A     45  44  98 N10         N/A
EWING            N/A     46  45  95 N13G20      N/A
$$

...OBSERVATIONS IN SOUTHWEST NEBRASKA AND FAR NORTHEAST COLORADO...

CITY           SKY/WX    TMP DP  RH WIND       PRES   REMARKS
WRAY           RAIN     N/A N/A N/A NE31G39   29.69F
HOLYOKE        RAIN      45  43  93 N23G30    29.76F
IMPERIAL       LGT RAIN  48  46  93 N26G35    29.71F FOG
OGALLALA       LGT RAIN  46  44  92 NE16      29.80S
NORTH PLATTE   LGT RAIN  49  45  86 NE23G29   29.78F FOG
LEXINGTON      DRIZZLE   53  51  92 NE10      29.75S
STAPLETON        N/A     46  45  95 E6          N/A
GOTHENBURG       N/A     53  49  88 E3          N/A
CALLAWAY         N/A     49  48  98 NE18        N/A
$$

...OBSERVATIONS IN CENTRAL LINCOLN COUNTY AREA...

CITY           SKY/WX    TMP DP  RH WIND       PRES   REMARKS
N.P. AIRPORT   LGT RAIN  49  45  86 NE23G29   29.78F FOG
N.P. DOWNTOWN    N/A     48  46  92 NE15G23     N/A
N.P. SOUTHEAST   N/A     47  45  92 N6G14       N/A
N.P. HILLCREST   N/A     47  45  94 NE26G39     N/A
$$

...SOME OBSERVATIONS FROM AROUND THE REGION...

CITY           SKY/WX    TMP DP  RH WIND       PRES   REMARKS
DENVER         LGT SNOW  33  32  96 N28       29.86S VSB 3/4 WCI  20
LIMON          LGT RAIN  39  39 100 N37G47    29.66F FOG     WCI  26
ASPEN          FLURRIES  33  32  96 NE9       29.87R WCI  25
LARAMIE        CLOUDY    32  27  81 N17       29.96R WCI  21
GILLETTE       CLEAR     35  33  92 CALM      30.02R
CHEYENNE       LGT SNOW  33  32  96 N16G25    29.93R FOG     WCI  23
SCOTTSBLUFF    CLOUDY    42  38  85 N15       29.95R
GRAND ISLAND   LGT RAIN  54  54 100 NE12      29.75F
OMAHA          LGT RAIN  56  51  84 N8        29.75R
SIOUX FALLS    CLOUDY    41  39  93 N7        29.81R
PIERRE         CLOUDY    42  36  79 N9        29.92R
RAPID CITY     CLOUDY    42  37  82 N8        29.98S
BISMARCK       CLOUDY    31  29  92 NW3       30.00R FOG
KANSAS CITY    MOCLDY    65  50  58 S15       29.79F
HILL CITY      MOCLDY    56  55  97 E8        29.62F
WICHITA        CLOUDY    69  41  36 S24G31    29.70F
DODGE CITY     CLOUDY    57  51  80 S16       29.58F
OKLAHOMA CITY  CLOUDY    67  46  47 S25G43    29.75F
DALLAS         MOCLDY    70  59  68 S21G30    29.89R
AMARILLO       CLEAR     47  31  53 SW24G35   29.66F
$$




USA.gov is the U.S. government's official web portal to all federal, state and local government web resources and services.